Date,TemperatureHighF,TemperatureAvgF,TemperatureLowF,DewpointHighF,DewpointAvgF,DewpointLowF,HumidityHigh,HumidityAvg,HumidityLow,PressureMaxIn,PressureMinIn,WindSpeedMaxMPH,WindSpeedAvgMPH,GustSpeedMaxMPH,PrecipitationSumIn
2013-1-1,38.3,36.2,33.1,38.3,35.7,29.9,100,98,83,30.19,30.01,7,1,7,0.04
2013-1-2,34.7,30.6,21.7,33.1,27.8,21.7,100,90,69,30.28,30.19,9,2,9,0.00
2013-1-3,42.8,27.7,17.2,28.7,23.3,16.3,100,86,56,30.42,30.25,12,1,12,0.00
2013-1-4,41.3,28.3,17.8,27.4,22.9,16.1,100,83,52,30.48,30.37,9,1,9,0.00
2013-1-5,46.9,35.4,24.8,31.6,28.2,23.7,100,77,50,30.37,30.19,10,1,10,0.00
2013-1-6,50.9,34.3,23.5,32.9,26.1,19.9,100,76,46,30.37,30.22,14,2,15,0.00
2013-1-7,48.4,32.4,18.7,28.6,23.3,17.2,97,72,46,30.37,30.19,11,2,11,0.00
2013-1-8,52.3,39.2,25.3,44.6,31.2,20.7,100,75,50,30.22,30.07,10,2,10,0.35
2013-1-9,57.7,50.2,44.4,50.2,46.6,44.3,100,89,63,30.28,30.16,11,2,11,0.16
2013-1-10,58.4,52.5,42.4,57.7,51.6,42.1,100,97,88,30.19,29.83,10,3,10,0.35
2013-1-11,64.7,49.1,34.3,48.1,42.8,34.3,100,81,53,29.92,29.80,11,3,12,0.00
2013-1-12,57.2,49.2,35.9,57.2,47.7,29.7,100,95,75,29.86,29.66,14,3,14,0.87
2013-1-13,38.3,33.2,23.9,30.5,23.1,13.1,79,66,54,30.31,29.86,15,4,15,0.00
2013-1-14,39.4,26.7,17.6,18.8,14.2,11.7,86,61,41,30.42,30.28,12,2,12,0.00
2013-1-15,30.0,24.8,18.3,25.1,19.7,12.1,95,81,64,30.34,30.16,9,2,9,0.00
2013-1-16,42.6,28.4,18.5,26.3,20.9,17.3,100,76,45,30.22,30.07,11,2,11,0.00
2013-1-17,53.8,35.1,22.8,32.8,24.9,17.9,93,69,42,30.51,30.16,13,2,13,0.00
2013-1-18,54.1,35.2,20.8,33.3,26.0,19.6,100,73,45,30.51,30.28,9,2,9,0.00
2013-1-19,62.0,41.3,23.5,39.9,30.4,21.8,96,69,44,30.28,30.10,10,2,10,0.00
2013-1-20,58.4,40.9,26.2,38.8,31.5,26.2,100,74,42,30.25,30.13,11,2,11,0.00
2013-1-21,48.2,37.9,24.4,32.7,20.7,14.3,81,51,39,30.34,30.16,10,2,10,0.00
2013-1-22,39.7,29.3,19.6,22.1,17.6,14.0,83,63,49,30.40,30.28,11,3,11,0.00
2013-1-23,56.3,38.8,23.5,40.3,28.5,16.8,95,68,48,30.31,30.13,8,1,8,0.00
2013-1-24,46.4,38.0,29.8,38.6,24.6,15.9,96,60,46,30.34,30.16,17,6,17,0.00
2013-1-25,43.0,34.5,29.3,34.8,30.9,19.0,100,87,63,30.25,30.10,10,2,10,0.00
2013-1-26,50.0,40.3,25.3,34.1,29.1,25.1,100,69,46,30.28,30.19,15,3,15,0.00
2013-1-27,55.9,48.9,43.5,52.2,42.5,30.5,96,79,57,30.22,30.01,11,4,11,0.00
2013-1-28,68.7,62.7,55.0,58.8,56.6,51.8,97,81,65,30.01,29.89,10,3,10,0.00
2013-1-29,66.4,61.7,52.0,63.4,57.5,51.4,100,87,68,29.89,29.45,31,5,31,1.46
2013-1-30,52.0,39.2,26.2,51.8,30.4,19.4,100,72,53,30.07,29.51,28,7,28,0.00
2013-1-31,56.3,35.3,20.1,31.5,23.2,8.3,100,65,37,30.40,30.04,19,4,19,0.00
2013-2-1,37.9,28.9,19.7,16.3,11.0,5.3,56,47,41,30.48,30.22,11,4,11,0.00
2013-2-2,56.1,36.4,21.5,35.1,24.3,14.2,92,63,45,30.25,30.16,16,2,16,0.00
2013-2-3,59.0,39.8,23.7,32.5,27.2,23.0,99,66,36,30.25,30.04,12,2,12,0.00
2013-2-4,49.3,41.8,32.5,42.8,35.2,25.2,100,79,51,30.04,29.86,7,2,7,0.12
2013-2-5,60.4,41.6,29.8,50.2,38.8,29.8,100,91,61,30.04,29.92,10,1,10,0.00
2013-2-6,58.4,45.6,29.8,42.5,37.6,29.8,100,76,54,30.13,29.98,16,3,16,0.00
2013-2-7,59.7,52.1,47.8,55.1,47.2,39.9,100,84,65,30.01,29.83,11,2,11,0.31
2013-2-8,54.7,44.4,33.4,45.7,33.8,29.7,96,68,46,30.25,30.01,12,3,12,0.00
2013-2-9,42.2,38.2,34.3,39.4,30.7,26.6,100,75,61,30.25,29.95,15,6,15,0.08
2013-2-10,64.2,50.6,38.8,56.3,40.9,28.9,100,74,38,29.98,29.66,23,6,23,0.43
2013-2-11,56.1,43.1,30.2,35.1,30.2,24.5,99,62,44,30.19,29.98,13,2,13,0.00
2013-2-12,44.6,36.6,28.4,38.6,33.2,28.4,100,88,58,30.10,29.86,12,2,12,0.24
2013-2-13,50.0,39.8,30.4,36.7,33.8,30.1,100,81,53,30.04,29.89,17,4,17,0.00
2013-2-14,61.1,43.3,25.0,39.0,32.4,25.0,100,70,41,30.10,29.98,19,3,19,0.00
2013-2-15,49.3,40.5,26.9,32.0,23.8,14.6,63,51,42,30.31,30.10,16,4,16,0.00
2013-2-16,43.5,32.3,20.8,23.8,19.0,14.3,82,59,40,30.31,30.16,12,3,12,0.00
2013-2-17,60.6,44.8,30.0,37.5,28.0,18.8,72,53,39,30.16,29.89,10,4,10,0.00
2013-2-18,59.7,50.6,38.3,51.8,39.3,26.7,85,65,51,30.07,29.63,23,6,23,0.08
2013-2-19,50.7,38.6,24.8,27.7,22.1,16.6,76,52,38,30.31,30.07,17,3,17,0.00
2013-2-20,33.8,29.7,27.1,28.1,23.6,17.3,97,79,52,30.31,30.10,12,3,12,0.00
2013-2-21,32.7,31.0,28.9,32.7,29.2,23.2,100,93,75,30.10,29.75,19,2,19,0.39
2013-2-22,37.4,31.3,24.6,32.5,25.5,18.7,100,80,61,30.13,29.86,15,5,15,0.20
2013-2-23,48.0,32.2,19.6,29.0,24.8,19.1,100,78,47,30.10,29.92,15,2,15,0.00
2013-2-24,55.9,40.3,24.1,35.1,29.2,23.3,100,68,45,30.04,29.83,15,4,15,0.00
2013-2-25,52.3,42.0,31.6,43.9,35.1,26.2,100,79,47,29.83,29.39,26,4,26,0.51
2013-2-26,40.1,37.2,35.6,40.1,31.2,26.5,100,80,65,29.89,29.33,22,8,22,0.04
2013-2-27,46.0,38.5,32.3,31.5,27.1,22.4,73,64,50,30.10,29.86,26,7,26,0.00
2013-2-28,32.9,29.8,27.7,25.3,23.3,21.5,84,77,69,30.13,30.04,10,4,10,0.00
2013-3-1,40.1,33.9,30.0,23.7,18.7,16.0,60,53,50,30.28,30.13,17,6,17,0.00
2013-3-2,43.5,32.8,23.3,24.0,18.9,15.9,76,57,42,30.34,30.22,17,4,17,0.00
2013-3-3,55.6,38.9,20.8,32.8,24.3,15.9,87,58,41,30.22,29.89,13,3,13,0.00
2013-3-4,61.0,48.4,40.4,47.3,37.4,27.2,97,66,58,29.89,29.66,16,5,16,0.00
2013-3-5,51.2,44.1,36.7,47.6,27.6,20.0,100,54,39,30.28,29.72,28,8,28,0.00
2013-3-6,50.2,37.6,26.8,29.9,22.3,14.5,80,54,43,30.40,30.25,14,3,14,0.00
2013-3-7,59.3,46.1,34.5,35.7,30.1,25.0,83,55,41,30.31,30.19,14,4,14,0.00
2013-3-8,60.4,49.1,33.4,38.4,33.1,28.1,87,55,44,30.31,30.10,14,5,14,0.00
2013-3-9,66.9,57.8,48.2,54.7,43.0,33.5,98,58,48,30.10,29.75,28,6,28,0.47
2013-3-10,55.7,48.4,34.9,55.4,44.5,27.1,100,87,60,29.92,29.63,28,7,28,1.81
2013-3-11,48.7,37.9,31.1,29.4,25.3,22.0,81,61,46,30.04,29.92,21,8,21,0.00
2013-3-12,60.1,42.5,26.4,39.0,29.4,24.0,95,64,36,30.28,30.01,24,3,24,0.00
2013-3-13,57.4,44.0,26.2,31.3,24.8,18.7,78,48,37,30.42,30.28,17,3,17,0.00
2013-3-14,68.7,47.1,28.9,43.6,32.8,22.4,86,60,37,30.37,30.10,10,1,10,0.00
2013-3-15,79.0,57.6,36.1,52.1,43.4,36.1,100,65,37,30.13,29.83,19,3,19,0.00
2013-3-16,78.6,60.7,43.3,52.6,46.6,41.5,96,63,40,29.86,29.72,12,2,12,0.00
2013-3-17,62.8,49.8,43.7,50.1,44.1,41.4,100,83,54,29.86,29.69,10,4,11,0.08
2013-3-18,57.7,48.1,36.7,46.6,41.0,32.0,100,79,45,30.04,29.69,15,3,15,0.00
2013-3-19,57.5,45.3,30.7,39.2,31.2,25.8,100,64,37,30.19,30.01,10,2,10,0.00
2013-3-20,53.9,42.7,28.2,32.3,25.9,19.5,90,53,37,30.31,30.10,20,4,20,0.00
2013-3-21,42.1,36.2,32.3,34.7,24.1,17.4,100,64,43,30.10,29.86,16,5,16,0.35
2013-3-22,42.1,38.2,33.1,38.4,34.3,30.5,100,86,74,29.92,29.80,14,5,14,0.43
2013-3-23,43.0,40.8,38.1,42.6,38.4,32.9,100,92,76,29.92,29.69,8,3,8,0.35
2013-3-24,41.7,36.8,31.1,41.7,29.1,17.2,100,75,56,30.10,29.63,28,9,28,0.00
2013-3-25,37.4,31.6,24.6,21.7,18.7,16.2,75,59,50,30.31,30.10,19,6,19,0.00
2013-3-26,47.1,34.4,24.2,27.9,21.6,16.8,89,61,46,30.42,30.31,15,4,15,0.00
2013-3-27,60.8,41.4,22.6,35.4,28.1,21.5,98,64,36,30.34,30.16,14,2,14,0.00
2013-3-28,69.6,55.6,43.1,46.0,38.2,30.1,75,53,43,30.25,30.10,8,3,8,0.00
2013-3-29,61.5,55.8,50.3,56.1,50.5,44.5,100,83,65,30.19,30.10,8,2,8,0.47
2013-3-30,66.5,57.0,51.1,55.2,52.0,49.1,100,85,58,30.13,29.89,9,3,9,0.39
2013-3-31,67.6,57.5,48.0,55.7,49.5,44.8,100,78,46,29.95,29.83,11,2,11,0.00
2013-4-1,71.2,55.3,38.5,52.0,43.3,38.3,100,69,42,30.13,29.95,12,3,12,0.00
2013-4-2,52.7,43.2,37.4,39.7,34.7,28.3,100,75,50,30.22,30.10,14,5,14,0.55
2013-4-3,53.6,43.8,37.6,40.3,29.5,23.6,92,59,38,30.22,30.13,19,4,19,0.04
2013-4-4,46.4,43.5,40.4,42.3,37.1,29.9,93,78,60,30.16,30.04,8,2,9,0.12
2013-4-5,68.3,49.3,30.5,46.0,38.3,30.5,100,72,34,30.19,30.01,9,2,9,0.00
2013-4-6,75.4,60.0,44.6,49.6,43.3,36.1,84,56,38,30.01,29.80,19,4,19,0.00
2013-4-7,71.9,62.7,52.5,55.0,51.3,46.7,90,67,54,29.95,29.83,15,3,15,0.00
2013-4-8,74.8,66.2,61.3,58.8,54.7,51.9,84,67,51,29.86,29.75,15,4,15,0.00
2013-4-9,81.1,71.2,63.3,61.6,57.0,53.4,76,62,43,29.86,29.75,17,5,19,0.00
2013-4-10,74.1,58.3,41.3,62.2,51.2,38.1,100,79,64,29.86,29.69,29,6,29,0.39
2013-4-11,56.5,44.6,36.8,39.5,33.4,28.5,93,66,45,29.83,29.72,20,8,20,0.00
2013-4-12,64.7,47.3,31.1,41.1,35.9,31.1,100,69,40,30.01,29.80,20,3,20,0.00
2013-4-13,68.9,53.5,38.6,45.2,39.9,35.6,95,63,42,30.07,29.80,11,3,11,0.00
2013-4-14,77.9,63.0,46.6,52.4,48.1,44.5,99,62,40,29.83,29.57,15,4,15,0.00
2013-4-15,76.4,66.5,58.4,59.1,56.6,52.2,92,72,53,29.80,29.69,15,5,15,0.00
2013-4-16,84.7,72.9,61.3,63.5,60.7,57.2,95,68,43,29.92,29.78,14,3,14,0.00
2013-4-17,82.0,74.6,68.7,66.3,62.4,58.0,88,67,50,29.95,29.69,15,4,15,0.00
2013-4-18,75.7,56.2,42.2,65.6,46.9,27.3,100,72,54,29.95,29.60,22,8,27,0.91
2013-4-19,56.6,44.9,35.2,33.4,28.4,22.1,84,53,37,30.10,29.95,20,6,20,0.00
2013-4-20,68.9,51.1,31.8,43.2,37.1,31.8,100,64,37,30.19,30.07,9,2,9,0.00
2013-4-21,68.2,55.7,41.7,45.9,40.2,36.0,95,59,37,30.25,30.10,15,3,15,0.00
2013-4-22,72.8,57.6,37.7,47.0,42.5,37.6,100,62,38,30.19,29.92,13,3,13,0.00
2013-4-23,70.0,57.3,43.5,54.9,47.5,35.3,100,71,50,30.04,29.86,16,4,16,0.00
2013-4-24,59.7,46.3,38.1,38.6,34.2,28.9,100,65,39,30.28,30.04,13,4,13,0.24
2013-4-25,68.7,50.7,30.7,41.2,36.5,30.7,100,64,34,30.34,30.19,12,2,12,0.00
2013-4-26,57.0,52.4,49.6,51.1,44.7,38.5,100,77,54,30.25,30.13,13,4,13,0.43
2013-4-27,58.6,53.8,51.1,57.0,52.7,49.2,100,96,87,30.13,29.92,15,4,15,0.43
2013-4-28,73.2,59.4,51.8,53.7,50.1,44.0,97,73,46,29.98,29.86,10,3,10,0.00
2013-4-29,84.2,65.4,47.5,60.9,54.6,47.5,100,72,41,29.92,29.78,15,2,15,0.00
2013-4-30,81.8,68.7,53.4,57.9,53.4,48.4,100,63,34,29.89,29.80,15,3,15,0.00
2013-5-1,77.0,66.3,56.5,61.0,55.8,49.3,100,70,51,30.04,29.86,17,3,17,0.00
2013-5-2,61.9,55.2,41.2,61.7,53.4,37.5,100,94,71,30.16,29.98,13,2,13,0.39
2013-5-3,49.1,41.4,35.4,40.4,33.3,28.4,98,75,48,30.13,29.95,18,5,18,0.35
2013-5-4,46.6,41.7,36.1,39.9,35.1,30.1,93,78,64,29.98,29.86,13,4,13,0.04
2013-5-5,64.2,48.2,32.0,45.3,38.3,32.0,100,72,45,30.04,29.92,15,4,15,0.00
2013-5-6,70.7,58.0,47.5,50.7,47.2,44.8,95,70,45,30.04,29.95,14,4,14,0.00
2013-5-7,76.4,66.4,49.3,55.3,52.0,46.5,96,63,42,30.04,29.95,12,2,12,0.00
2013-5-8,81.7,66.8,52.0,58.2,54.5,52.0,100,69,41,30.04,29.89,10,2,10,0.00
2013-5-9,79.0,67.6,60.2,63.0,57.1,52.5,96,71,42,30.01,29.86,15,2,15,0.00
2013-5-10,77.2,66.9,59.3,63.5,57.3,49.5,100,74,44,30.01,29.86,15,3,15,0.20
2013-5-11,77.3,64.3,50.7,52.5,48.1,36.0,98,59,40,30.16,29.98,14,3,14,0.00
2013-5-12,69.4,56.9,39.5,46.1,39.7,34.2,96,55,37,30.25,30.10,12,2,12,0.00
2013-5-13,81.5,63.0,44.8,54.2,48.0,42.0,97,62,36,30.19,30.01,15,2,15,0.00
2013-5-14,86.7,68.4,49.6,58.6,54.3,49.6,100,66,36,30.07,29.95,15,2,15,0.00
2013-5-15,77.9,65.4,53.6,68.3,59.0,52.4,100,82,53,30.01,29.86,9,1,9,0.24
2013-5-16,67.3,63.4,60.2,64.9,60.6,53.4,100,91,68,29.89,29.80,10,2,10,0.63
2013-5-17,82.0,70.6,61.1,69.1,62.8,59.8,100,79,49,29.89,29.80,9,2,9,0.04
2013-5-18,84.4,74.4,65.5,68.5,66.8,64.9,100,79,54,29.92,29.80,12,3,12,0.00
2013-5-19,86.2,76.2,66.2,70.9,64.8,60.4,100,71,44,29.83,29.72,16,4,16,2.78
2013-5-20,81.8,74.8,62.4,66.9,63.0,60.2,100,67,57,29.95,29.69,29,3,29,0.20
2013-5-21,67.8,61.7,59.7,65.1,61.5,59.7,100,99,82,29.92,29.69,27,3,27,1.93
2013-5-22,78.2,65.7,56.6,60.6,57.2,54.3,100,77,48,29.89,29.78,16,3,16,0.04
2013-5-23,77.3,66.6,55.2,66.6,60.2,55.2,100,82,57,30.10,29.89,6,1,6,0.00
2013-5-24,74.5,66.1,58.3,60.7,52.4,47.9,90,62,49,30.25,30.10,13,3,13,0.00
2013-5-25,80.6,67.4,53.6,60.6,53.9,46.8,98,64,50,30.25,30.07,10,2,10,0.00
2013-5-26,83.8,72.5,59.9,64.0,59.7,55.2,97,66,47,30.10,29.98,17,3,17,0.00
2013-5-27,83.1,74.2,65.6,63.4,60.9,59.1,86,65,49,30.01,29.83,15,4,15,0.00
2013-5-28,83.3,75.5,67.1,63.3,60.9,58.1,87,62,46,29.92,29.80,13,4,13,0.00
2013-5-29,82.7,75.4,69.1,63.7,61.3,59.5,76,62,49,29.92,29.78,10,4,13,0.00
2013-5-30,77.5,71.1,63.5,68.9,63.3,53.2,100,78,54,29.86,29.75,23,4,23,1.54
2013-5-31,86.5,76.1,67.8,70.0,67.7,65.9,100,77,52,29.83,29.66,10,2,10,0.00
2013-6-1,77.5,67.6,63.3,70.5,64.5,59.0,100,90,61,29.92,29.75,24,2,24,1.22
2013-6-2,75.4,65.1,54.8,63.1,55.9,52.4,100,75,50,29.98,29.92,10,2,10,0.00
2013-6-3,79.3,65.2,51.6,58.4,54.2,51.0,100,71,44,30.01,29.89,9,2,9,0.00
2013-6-4,79.3,68.5,57.9,60.2,57.5,54.1,100,70,50,30.01,29.86,12,2,12,0.00
2013-6-5,79.7,68.7,59.9,67.1,61.5,58.4,100,80,51,29.98,29.78,15,2,15,2.78
2013-6-6,75.5,68.8,59.2,65.6,58.5,54.8,100,72,54,29.89,29.80,12,2,12,0.00
2013-6-7,79.5,68.6,56.8,62.9,54.3,49.7,100,64,40,29.92,29.83,11,2,11,0.00
2013-6-8,82.9,69.0,54.3,61.1,55.6,52.0,100,67,40,29.92,29.83,9,2,9,0.00
2013-6-9,85.1,70.7,60.4,64.6,59.2,54.8,94,70,38,29.89,29.80,17,2,17,0.00
2013-6-10,89.8,74.4,58.1,66.2,61.0,56.6,100,67,38,29.92,29.83,17,3,17,0.00
2013-6-11,93.5,78.9,63.5,69.7,64.9,62.1,100,67,38,29.98,29.89,10,2,10,0.00
2013-6-12,90.8,79.3,66.7,71.0,66.8,64.8,100,69,44,30.01,29.86,17,3,17,0.00
2013-6-13,94.8,80.9,68.2,73.6,67.9,60.1,100,68,45,29.95,29.86,15,3,15,0.00
2013-6-14,89.0,78.1,68.9,66.2,63.2,59.4,87,62,47,30.01,29.92,8,2,8,0.00
2013-6-15,87.4,77.1,64.9,65.8,62.9,58.5,99,64,42,30.01,29.89,12,2,12,0.00
2013-6-16,86.5,74.3,65.8,71.5,66.4,57.2,100,78,51,30.01,29.83,28,2,28,1.10
2013-6-17,80.8,70.9,64.9,73.0,66.7,62.2,100,89,54,29.95,29.83,12,2,12,0.28
2013-6-18,86.0,74.4,63.8,69.6,64.5,60.6,100,75,44,29.98,29.86,8,1,8,0.04
2013-6-19,86.7,74.4,61.0,68.2,63.8,59.0,100,73,44,30.01,29.92,11,2,11,0.04
2013-6-20,89.0,77.8,63.8,71.5,66.0,63.6,100,70,47,30.07,29.95,12,2,12,0.04
2013-6-21,91.0,81.3,70.7,70.7,67.6,63.3,94,65,42,30.07,29.98,11,2,11,0.00
2013-6-22,90.1,79.8,70.5,71.4,67.4,62.5,100,68,46,30.07,29.92,12,3,12,0.00
2013-6-23,90.3,79.2,68.3,68.7,66.0,62.2,99,67,43,30.01,29.89,11,2,11,0.00
2013-6-24,90.1,79.7,68.5,69.4,66.4,62.5,100,67,42,30.04,29.92,13,2,13,0.00
2013-6-25,89.6,79.8,70.1,68.8,66.0,62.7,94,65,43,29.98,29.83,13,2,13,0.00
2013-6-26,92.6,81.5,70.5,71.7,68.8,65.1,100,68,47,29.89,29.80,13,2,13,0.00
2013-6-27,95.9,83.4,70.7,73.9,70.7,66.8,100,69,41,29.92,29.83,12,2,12,0.00
2013-6-28,95.2,84.2,73.7,74.6,66.8,59.5,98,60,33,29.86,29.75,16,3,16,0.00
2013-6-29,88.3,76.2,62.4,64.5,57.1,50.4,97,56,35,29.83,29.72,22,3,22,0.00
2013-6-30,81.1,71.9,62.2,57.2,54.4,52.0,74,55,42,29.89,29.78,13,2,13,0.00
2013-7-1,84.4,72.8,60.1,58.5,53.8,49.3,91,54,36,29.98,29.89,15,2,15,0.00
2013-7-2,84.2,70.0,55.0,59.5,52.8,48.3,100,58,36,30.04,29.95,12,2,12,0.00
2013-7-3,84.7,69.6,55.0,56.1,52.9,49.3,93,59,33,30.07,29.95,9,2,10,0.00
2013-7-4,87.8,73.6,57.7,58.7,54.5,49.5,87,54,35,30.04,29.92,9,1,9,0.00
2013-7-5,90.8,75.5,58.8,60.8,56.3,52.6,92,55,34,30.01,29.89,9,1,9,0.00
2013-7-6,89.6,77.4,64.7,64.7,59.9,55.4,92,58,35,29.98,29.89,12,2,12,0.00
2013-7-7,92.5,79.5,65.6,67.2,62.8,60.2,98,60,38,30.04,29.95,10,2,10,0.00
2013-7-8,93.0,81.5,69.8,68.1,64.7,61.4,90,59,38,30.07,29.98,10,2,11,0.00
2013-7-9,94.8,82.3,69.6,67.5,65.3,63.0,91,59,37,30.07,29.92,13,2,13,0.00
2013-7-10,98.8,80.4,69.6,73.0,67.5,64.1,100,70,35,29.98,29.83,17,2,17,0.79
2013-7-11,96.4,81.0,69.1,76.3,69.0,62.9,100,72,37,29.95,29.86,10,1,11,0.00
2013-7-12,88.7,78.3,66.7,67.9,60.6,56.2,82,56,41,30.04,29.92,13,3,13,0.00
2013-7-13,84.5,72.5,57.0,63.7,58.5,54.9,100,65,40,30.04,29.92,7,1,8,0.00
2013-7-14,88.0,75.8,60.4,65.3,59.3,56.4,100,59,37,30.01,29.92,14,2,14,0.00
2013-7-15,90.1,79.8,71.0,66.4,63.9,60.2,81,60,40,30.13,29.98,11,3,14,0.00
2013-7-16,90.7,80.4,69.1,72.1,65.9,62.1,100,64,40,30.22,30.10,14,2,14,0.00
2013-7-17,93.5,81.0,68.0,73.6,64.5,59.4,100,61,37,30.25,30.13,11,2,11,0.00
2013-7-18,96.6,78.9,67.6,70.9,65.2,60.8,100,68,35,30.16,29.95,22,2,22,3.13
2013-7-19,89.4,73.4,68.3,71.2,68.1,62.5,100,86,48,30.04,29.89,9,1,15,0.00
2013-7-20,88.1,76.0,67.8,72.1,66.7,62.7,100,76,46,29.95,29.80,12,2,12,0.71
2013-7-21,89.0,77.6,69.2,71.6,67.4,65.1,93,72,50,29.92,29.80,13,1,13,0.00
2013-7-22,90.8,76.7,67.3,71.9,66.2,59.1,100,73,45,29.95,29.80,13,2,19,0.35
2013-7-23,94.1,77.6,68.7,77.2,69.6,63.0,100,80,47,29.92,29.75,20,3,20,0.39
2013-7-24,89.8,76.8,68.3,70.3,66.1,61.0,100,74,40,29.95,29.78,11,2,11,0.47
2013-7-25,82.9,75.3,68.7,72.5,65.3,60.3,100,74,52,30.04,29.95,10,2,10,0.31
2013-7-26,70.9,68.2,65.3,69.2,64.2,59.7,100,88,73,30.04,29.92,8,2,8,0.71
2013-7-27,86.5,73.3,62.8,70.0,62.3,57.3,100,73,38,29.98,29.89,9,2,9,0.31
2013-7-28,86.5,73.0,62.2,63.4,60.3,53.9,100,67,42,30.01,29.92,9,2,9,0.31
2013-7-29,85.3,75.7,66.2,67.7,63.9,59.8,88,68,53,30.07,29.95,11,3,11,0.31
2013-7-30,84.5,78.0,72.8,72.8,68.2,63.2,95,73,55,30.04,29.95,10,2,10,0.31
2013-7-31,89.8,76.3,71.6,75.0,71.9,67.2,100,88,52,30.01,29.92,15,2,15,1.22
2013-8-1,89.4,78.0,67.8,76.4,68.5,65.3,100,76,47,30.04,29.92,7,1,7,0.31
2013-8-2,87.6,77.4,68.2,75.2,68.8,64.1,100,76,60,29.98,29.86,8,2,8,0.31
2013-8-3,86.7,76.7,68.0,75.7,71.1,64.0,100,84,54,30.10,29.89,22,1,22,0.51
2013-8-4,84.5,75.4,70.7,74.3,69.8,66.1,100,84,59,30.07,29.98,10,2,10,0.31
2013-8-5,90.7,79.7,71.2,73.1,71.2,68.1,100,78,53,30.01,29.83,6,2,6,0.31
2013-8-6,93.4,83.7,74.1,78.7,72.9,63.3,100,72,47,29.89,29.78,10,2,10,0.31
2013-8-7,91.0,82.6,73.0,78.7,76.1,73.0,100,82,64,29.89,29.80,12,2,12,0.31
2013-8-8,95.3,79.7,69.1,81.2,74.8,67.6,100,87,59,29.92,29.80,26,3,26,2.36
2013-8-9,89.3,77.5,70.7,78.7,73.0,69.6,100,88,61,30.01,29.89,14,2,14,0.31
2013-8-10,90.5,77.8,70.7,77.6,72.8,68.7,100,86,58,30.04,29.95,12,2,12,0.63
2013-8-11,90.0,78.2,72.7,75.0,72.6,70.1,100,84,57,30.07,29.98,8,1,8,0.31
2013-8-12,89.1,76.2,71.1,76.2,73.0,67.6,100,91,60,30.01,29.92,19,1,19,0.31
2013-8-13,83.0,72.8,69.7,74.4,71.1,68.4,100,95,66,30.01,29.89,12,1,12,1.57
2013-8-14,82.6,72.4,63.0,69.8,63.8,58.9,100,77,50,30.10,29.98,11,2,11,0.31
2013-8-15,79.2,67.6,55.8,62.6,58.6,55.1,100,76,51,30.10,29.98,8,1,8,0.31
2013-8-16,77.2,66.6,58.0,64.9,60.2,57.3,100,82,52,30.07,30.01,8,1,8,0.31
2013-8-17,85.3,70.1,58.0,65.5,62.2,58.0,100,79,49,30.07,29.98,9,1,9,0.31
2013-8-18,85.7,73.2,62.6,70.0,65.3,62.6,100,79,53,30.10,30.01,12,2,12,0.31
2013-8-19,88.2,74.1,61.9,70.4,66.3,61.9,100,79,50,30.10,29.95,8,1,8,0.31
2013-8-20,89.5,75.9,64.4,73.1,66.9,63.8,100,77,46,30.07,29.98,9,1,9,0.31
2013-8-21,92.2,77.6,64.6,74.7,68.1,64.6,100,76,46,30.10,30.01,8,1,8,0.31
2013-8-22,93.2,79.4,66.4,76.0,70.3,66.4,100,77,49,30.07,29.95,8,1,8,0.31
2013-8-23,96.1,79.9,67.3,78.3,70.4,67.3,100,76,45,30.04,29.95,9,1,9,0.31
2013-8-24,93.8,80.4,68.8,77.9,71.0,67.4,100,76,47,30.10,30.01,9,1,9,0.31
2013-8-25,92.2,80.9,70.7,73.8,71.0,67.0,100,74,51,30.19,30.10,9,1,9,0.31
2013-8-26,91.8,80.4,71.5,75.1,70.7,67.0,100,75,49,30.19,30.07,9,2,9,0.31
2013-8-27,93.6,79.1,66.6,72.3,69.0,66.4,100,75,46,30.10,29.98,8,1,8,0.31
2013-8-28,95.9,80.4,67.5,73.5,70.0,66.8,100,74,46,30.07,29.95,6,1,8,0.31
2013-8-29,95.4,81.2,68.2,77.9,71.8,68.2,100,77,48,30.04,29.95,10,1,10,0.31
2013-8-30,96.8,82.5,70.6,76.2,72.2,69.6,100,75,45,29.98,29.83,11,2,11,0.31
2013-8-31,97.4,82.8,70.6,77.2,71.8,69.9,100,73,45,29.89,29.78,12,1,12,0.31
2013-9-1,99.2,78.9,69.5,75.8,71.8,67.7,100,83,44,29.86,29.75,15,1,15,0.39
2013-9-2,92.0,80.2,70.6,79.0,71.8,64.9,100,78,49,29.92,29.83,9,1,9,0.31
2013-9-3,91.8,77.2,64.3,70.9,66.1,62.1,100,72,45,30.01,29.92,11,1,11,0.31
2013-9-4,91.6,75.9,61.2,67.3,63.2,59.5,100,68,45,30.13,29.98,9,1,9,0.31
2013-9-5,92.2,74.9,59.9,67.8,63.3,59.9,100,71,45,30.16,30.04,6,1,7,0.31
2013-9-6,92.9,75.2,59.9,70.2,64.1,59.8,100,72,44,30.13,29.98,9,1,9,0.31
2013-9-7,97.7,79.6,66.4,72.2,67.1,62.9,98,69,42,30.07,29.92,9,1,9,0.31
2013-9-8,97.2,78.8,65.5,72.7,68.2,64.8,100,74,44,30.01,29.89,10,1,10,0.00
2013-9-9,97.4,80.9,66.8,71.8,68.1,63.7,100,69,44,30.04,29.92,7,1,7,0.00
2013-9-10,94.7,79.1,64.3,71.0,66.9,63.0,100,70,45,30.16,30.01,9,1,9,0.00
2013-9-11,95.8,79.7,69.1,71.0,67.9,64.8,97,69,45,30.16,30.07,12,2,12,22.22
2013-9-12,92.0,77.1,67.7,74.5,70.2,65.9,100,82,49,30.13,30.01,11,1,11,0.00
2013-9-13,87.3,75.4,61.4,72.4,61.8,52.2,100,66,46,30.13,29.98,10,2,10,0.08
2013-9-14,81.9,67.0,53.1,59.8,55.1,51.2,100,69,47,30.16,30.04,13,2,13,0.00
2013-9-15,89.1,70.6,54.0,65.9,57.2,49.0,89,65,46,30.16,30.07,5,1,5,0.00
2013-9-16,90.5,75.8,63.2,69.4,63.4,59.2,91,67,48,30.25,30.13,7,2,9,0.00
2013-9-17,90.7,76.4,63.7,67.7,64.5,61.2,100,69,46,30.25,30.07,10,2,10,0.00
2013-9-18,92.5,78.7,70.0,70.0,65.5,62.0,82,65,48,30.16,30.04,8,2,8,0.00
2013-9-19,89.5,76.6,71.3,75.4,68.8,63.6,100,78,56,30.13,30.01,23,2,23,0.39
2013-9-20,73.1,69.8,62.1,72.9,67.1,53.5,100,92,61,30.07,29.95,8,1,8,1.06
2013-9-21,83.0,65.7,52.0,62.4,53.5,47.0,100,69,42,30.10,30.01,11,2,11,0.00
2013-9-22,80.3,61.8,46.1,60.1,52.7,46.1,100,76,45,30.13,30.01,10,1,10,0.00
2013-9-23,80.5,64.9,49.7,63.2,55.3,49.5,100,75,48,30.10,29.95,12,2,12,0.00
2013-9-24,84.1,69.7,56.0,65.2,58.4,54.9,100,71,44,30.04,29.95,15,3,15,0.00
2013-9-25,84.6,67.8,54.2,64.3,59.4,54.2,100,78,47,30.04,29.95,13,2,13,0.00
2013-9-26,86.6,70.1,55.4,65.1,60.2,55.4,100,75,47,30.16,30.01,9,2,9,0.00
2013-9-27,87.3,72.3,58.0,67.7,61.7,58.0,100,73,47,30.22,30.10,13,2,13,0.00
2013-9-28,86.6,73.1,66.8,71.8,66.0,61.1,100,80,53,30.22,30.13,19,2,21,0.75
2013-9-29,78.5,70.6,65.7,70.0,66.1,63.6,100,87,61,30.22,30.13,7,2,8,0.00
2013-9-30,82.1,73.0,66.4,68.7,66.2,63.5,100,81,55,30.16,30.07,8,2,8,0.00
2013-10-1,83.9,75.3,69.3,74.0,68.9,66.4,100,82,58,30.13,29.38,11,2,11,0.00
2013-10-2,82.8,74.6,70.0,74.2,69.3,66.7,100,84,63,30.06,29.94,13,2,13,0.00
2013-10-3,84.2,74.4,68.2,70.8,68.2,65.1,100,83,57,30.00,29.88,11,2,11,0.00
2013-10-4,88.0,76.8,67.5,71.8,68.3,64.6,100,78,48,29.97,29.88,21,3,21,0.00
2013-10-5,79.0,65.0,52.4,74.3,63.8,52.4,100,96,70,30.09,29.91,20,4,20,36.91
2013-10-6,67.1,55.8,48.1,52.6,48.7,45.0,100,80,52,30.06,29.97,18,4,18,0.00
2013-10-7,75.2,57.0,41.9,54.7,48.1,41.9,100,77,43,30.17,30.03,11,2,11,0.00
2013-10-8,74.2,57.5,43.6,58.1,49.7,43.6,100,79,50,30.23,30.09,11,1,11,0.00
2013-10-9,76.1,58.4,43.2,59.0,50.4,43.2,100,79,48,30.17,30.06,7,1,7,0.00
2013-10-10,78.7,62.4,47.0,61.4,54.7,47.0,100,79,50,30.14,29.97,8,1,8,0.00
2013-10-11,79.6,66.4,55.1,64.0,59.8,54.9,100,82,59,30.03,29.88,13,2,13,0.00
2013-10-12,81.2,71.5,63.5,69.7,64.0,60.4,100,79,58,30.17,29.94,10,2,10,0.08
2013-10-13,79.2,68.3,58.1,63.3,58.1,53.9,98,72,50,30.35,30.17,8,2,10,0.00
2013-10-14,68.9,61.2,51.3,63.5,56.4,50.5,100,85,62,30.29,30.03,8,1,8,0.16
2013-10-15,67.9,64.3,58.3,67.9,64.3,58.1,100,100,98,30.06,29.91,9,1,9,1.34
2013-10-16,62.8,56.3,52.2,58.1,51.5,45.6,100,85,63,30.11,30.00,6,2,8,0.35
2013-10-17,66.4,54.7,44.8,51.7,48.2,44.8,100,81,53,30.11,30.00,9,2,9,0.00
2013-10-18,66.6,53.1,40.1,58.9,49.9,40.1,100,91,56,30.09,29.97,8,1,8,0.08
2013-10-19,59.9,50.7,40.7,54.9,43.3,36.6,100,77,53,30.17,30.03,13,3,13,0.08
2013-10-20,68.9,51.0,35.3,50.1,43.5,35.3,100,79,50,30.11,29.94,10,2,10,0.00
2013-10-21,60.8,52.3,44.8,54.9,49.5,44.6,100,91,66,30.11,30.00,7,0,7,0.24
2013-10-22,66.2,49.1,38.0,53.4,45.5,38.0,100,89,56,30.17,29.97,16,2,16,0.24
2013-10-23,65.2,50.8,37.4,49.1,43.7,37.4,100,80,51,30.23,30.06,9,1,9,0.24
2013-10-24,65.3,50.7,39.4,49.1,41.4,32.3,100,74,49,30.47,30.11,11,2,11,0.24
2013-10-25,56.3,43.8,32.6,39.8,35.3,31.9,100,74,50,30.62,30.35,11,2,11,0.24
2013-10-26,59.8,49.4,38.5,51.3,42.7,33.6,100,79,57,30.35,30.11,5,1,5,0.24
2013-10-27,63.0,54.6,46.8,55.8,51.8,46.8,100,91,71,30.14,30.03,5,0,5,0.24
2013-10-28,65.0,59.1,48.1,59.5,55.8,48.1,100,90,71,30.23,30.09,6,1,8,0.24
2013-10-29,73.6,65.4,58.9,67.5,61.4,55.0,100,87,69,30.20,30.06,9,2,9,0.24
2013-10-30,70.7,66.6,61.7,65.5,63.1,58.4,100,89,67,30.09,29.91,12,2,12,0.31
2013-10-31,77.4,64.0,49.1,69.7,59.0,48.5,100,86,49,29.91,29.49,33,4,33,0.24
2013-11-1,71.5,54.8,40.0,55.3,46.6,40.0,100,77,47,30.00,29.82,16,2,16,0.24
2013-11-2,61.4,50.6,38.0,43.6,40.0,35.5,99,68,52,30.29,30.00,15,3,15,0.24
2013-11-3,62.6,47.5,32.0,44.7,39.2,31.9,100,76,52,30.32,30.09,14,2,14,0.24
2013-11-4,56.9,52.3,48.1,53.3,46.2,39.7,100,81,65,30.23,30.14,11,2,11,0.20
2013-11-5,61.2,58.4,53.3,60.5,57.8,53.3,100,98,86,30.23,30.03,8,2,8,1.18
2013-11-6,63.2,52.8,35.6,63.2,48.9,31.7,100,87,66,30.41,29.94,13,4,13,1.10
2013-11-7,61.4,43.0,30.1,44.5,37.9,30.1,100,85,53,30.56,30.38,8,1,8,0.24
2013-11-8,63.9,47.9,33.5,46.3,40.4,33.5,100,78,52,30.44,30.20,12,2,12,0.24
2013-11-9,64.1,52.4,42.5,49.4,46.3,42.1,100,82,54,30.32,30.17,9,1,9,0.24
2013-11-10,66.4,53.4,43.9,53.4,46.8,43.7,100,81,48,30.44,30.32,6,1,8,0.24
2013-11-11,68.6,52.4,39.1,51.4,45.5,39.1,100,81,51,30.35,30.20,9,1,9,0.00
2013-11-12,60.1,42.0,25.2,51.8,28.5,18.3,87,59,44,30.82,30.32,15,4,15,0.00
2013-11-13,47.5,31.9,19.8,28.3,23.2,17.9,98,73,47,30.82,30.47,6,1,7,0.00
2013-11-14,53.8,39.8,22.5,36.9,29.0,19.4,98,67,48,30.47,30.11,10,2,10,0.00
2013-11-15,52.7,47.5,43.4,52.0,42.6,34.7,100,84,68,30.11,29.94,8,3,8,0.00
2013-11-16,71.5,63.0,52.7,68.2,57.0,51.3,100,82,60,29.97,29.70,17,4,17,0.71
2013-11-17,79.2,67.2,43.2,70.4,55.8,36.5,100,71,41,30.11,29.61,26,4,26,0.00
2013-11-18,67.7,50.7,36.9,45.3,37.3,31.1,85,62,43,30.29,30.11,13,2,13,0.00
2013-11-19,57.4,47.0,38.3,38.1,34.7,29.7,89,64,47,30.35,30.17,13,3,13,0.00
2013-11-20,60.1,50.3,40.5,41.4,35.4,29.5,66,57,50,30.20,29.97,9,4,10,0.00
2013-11-21,56.9,54.9,52.2,55.6,47.8,38.6,100,79,54,30.20,30.06,8,3,8,0.24
2013-11-22,55.6,45.5,39.1,55.6,40.0,33.6,100,82,67,30.53,30.20,8,3,10,0.08
2013-11-23,47.0,39.8,31.1,35.1,27.6,15.9,88,63,47,30.73,30.53,14,3,14,0.00
2013-11-24,32.6,29.2,23.9,19.5,15.7,10.6,61,57,51,30.79,30.47,13,3,13,0.00
2013-11-25,34.2,32.0,29.0,34.2,26.4,17.8,100,81,56,30.47,30.20,9,2,9,0.12
2013-11-26,50.4,39.3,34.0,37.8,31.1,21.2,100,75,54,30.32,30.06,18,4,18,0.00
2013-11-27,42.3,31.0,21.2,24.4,18.1,12.6,85,59,48,30.50,30.32,9,3,13,0.00
2013-11-28,50.4,31.8,17.1,32.0,23.5,15.9,96,74,49,30.53,30.41,12,2,12,0.00
2013-11-29,57.2,36.6,21.6,38.6,29.1,21.6,100,77,47,30.62,30.41,7,2,8,0.00
2013-11-30,58.3,40.9,26.5,43.4,34.8,25.8,100,81,55,30.44,30.20,6,2,6,0.00
2013-12-1,58.3,51.0,40.1,50.3,45.8,40.1,100,83,66,30.20,29.88,5,0,5,0.00
2013-12-2,65.3,51.5,41.9,54.2,47.9,41.9,100,89,61,29.88,29.67,6,1,6,0.00
2013-12-3,56.9,49.9,39.1,55.3,49.6,39.1,100,99,87,29.70,29.58,10,2,10,0.00
2013-12-4,68.0,57.1,45.0,57.5,50.2,38.6,100,80,56,29.91,29.61,15,5,15,0.00
2013-12-5,45.0,35.7,31.0,38.6,31.9,25.3,100,87,62,30.23,29.91,13,3,13,1.02
2013-12-6,31.3,25.9,23.0,30.6,22.9,17.7,100,88,77,30.59,30.20,0,0,0,0.12
2013-12-7,27.0,22.2,13.7,20.0,15.6,8.8,84,75,67,30.73,30.38,0,0,0,0.04
2013-12-8,29.2,26.0,22.9,29.2,24.5,18.3,100,94,80,30.38,30.09,0,0,0,0.00
2013-12-9,33.1,30.1,25.4,30.2,26.1,21.0,100,86,70,30.38,30.20,0,0,0,0.00
2013-12-10,30.4,26.4,20.5,27.0,22.4,18.0,100,85,74,30.56,30.35,0,0,0,0.00
2013-12-11,36.7,27.6,21.8,36.4,27.4,21.8,100,99,88,30.71,30.41,6,0,6,0.00
2013-12-12,39.2,27.3,16.7,29.7,23.7,15.6,100,88,59,30.73,30.41,6,1,6,0.24
2013-12-13,38.2,33.4,24.8,35.5,31.0,24.8,100,92,68,30.41,29.91,10,3,10,0.87
2013-12-14,41.4,36.7,32.9,40.9,32.6,26.0,100,86,71,30.29,29.85,17,4,17,0.04
2013-12-15,47.7,33.5,23.8,34.2,28.1,22.1,100,82,58,30.35,30.20,10,2,10,0.00
2013-12-16,60.7,37.8,23.9,43.0,32.5,23.9,100,84,52,30.23,30.11,8,1,8,0.00
2013-12-17,65.0,42.0,25.9,46.1,33.3,25.9,100,75,43,30.35,30.20,11,2,11,0.00
2013-12-18,61.6,43.3,26.6,43.8,34.0,24.7,100,72,52,30.35,30.03,10,3,10,0.00
2013-12-19,62.5,52.9,37.1,54.6,45.7,35.4,100,78,63,30.03,29.79,13,4,13,0.00
2013-12-20,70.0,55.3,38.3,60.1,51.1,38.3,100,87,64,29.88,29.73,11,3,11,0.24
2013-12-21,45.0,40.2,36.7,45.0,40.2,36.7,100,100,98,29.76,29.47,17,3,17,3.19
2013-12-22,38.9,35.0,32.2,38.9,29.2,22.5,100,80,67,30.41,29.73,13,6,14,0.00
2013-12-23,37.1,32.1,27.4,25.7,22.8,20.2,76,68,61,30.65,30.41,11,4,11,0.00
2013-12-24,37.4,28.9,18.9,25.0,21.5,18.0,100,75,58,30.68,30.41,11,3,11,0.00
2013-12-25,46.8,33.9,25.2,34.7,27.5,21.5,100,78,61,30.47,30.35,9,2,9,0.00
2013-12-26,49.5,31.7,20.7,41.9,27.7,20.7,100,87,55,30.53,30.38,8,1,8,0.00
2013-12-27,54.9,34.8,21.6,38.4,29.2,21.6,100,83,51,30.53,30.38,8,1,8,0.00
2013-12-28,51.7,35.3,24.3,36.5,30.5,24.3,100,85,56,30.38,30.00,7,1,7,0.00
2013-12-29,50.8,36.9,29.0,44.5,31.2,19.4,100,81,65,30.29,30.00,13,3,13,0.00
2013-12-30,33.5,29.9,24.5,24.1,20.6,17.6,87,68,60,30.44,30.26,8,2,8,0.00
2013-12-31,51.8,33.2,17.6,35.7,25.4,16.7,100,75,52,30.50,30.26,10,2,10,0.00
2014-1-1,51.7,39.6,23.6,37.4,30.7,22.1,100,72,56,30.26,29.91,13,4,13,0.00
2014-1-2,44.8,30.0,21.2,31.0,17.6,9.6,70,60,51,30.56,30.03,20,6,20,0.00